Regional Weather Roundup
Issued by NWS Newport/Morehead, NC

Current Version | Previous Version | Text Only | Print | Product List | Glossary On
Versions: 1 2 3 4 5 6 7 8 9 10 11 12 13 14 15 16 17 18 19 20 21 22 23 24 25 26 27 28 29 30 31 32 33 34 35 36 37 38 39 40 41 42 43 44 45 46 47 48 49 50
000 ASUS42 KMHX 260125 RWRMHX WEATHER ROUNDUP FOR EASTERN NORTH CAROLINA NATIONAL WEATHER SERVICE NEWPORT/MOREHEAD CITY NC 900 PM EDT SUN SEP 25 2016 NOTE: "FAIR" INDICATES FEW OR NO CLOUDS BELOW 12,000 FEET WITH NO SIGNIFICANT WEATHER AND/OR OBSTRUCTIONS TO VISIBILITY NCZ015>017-031-032-045>047-102-103-260200- NORTH COAST CITY SKY/WX TMP DP RH WIND PRES REMARKS EDENTON CLOUDY 69 58 68 E3 30.17R ELIZABETH CITY MOCLDY 67 58 72 E6 30.17R KITTY HAWK NOT AVBL MANTEO CLEAR 67 57 70 NE6 30.17R $$ NCZ045>047-081-094-103-104-260200- CENTRAL COAST CITY SKY/WX TMP DP RH WIND PRES REMARKS FRISCO MOCLDY 70 57 63 NE6 30.15R $$ NCZ095-097-098-100-101-260200- SOUTHERN COAST CITY SKY/WX TMP DP RH WIND PRES REMARKS BEAUFORT CLOUDY 72 61 68 NE10 30.14R CEDAR ISLAND NOT AVBL JACKSONVILLE CLOUDY 73 62 68 E10 30.13R PINEY ISLAND CLOUDY N/A N/A N/A NE10 30.14R WILMINGTON PTCLDY 71 63 75 NE5 30.13R $$ NCZ011>013-027>030-043-044-078>080-089-090>093-098-260200- COASTAL PLAIN CITY SKY/WX TMP DP RH WIND PRES REMARKS AHOSKIE MOCLDY 65 62 90 CALM 30.17R CLINTON PTCLDY 72 67 84 CALM 30.14R ELIZABETHTOWN PTCLDY 73 69 85 E5 30.13R GOLDSBORO CLOUDY 69 66 89 E8 30.13R GREENVILLE PTCLDY 68 63 83 E5 30.17R HAVELOCK CLOUDY 72 61 68 E5 30.16R KENANSVILLE CLOUDY 70 66 88 CALM 30.15R KINSTON CLOUDY 70 63 78 E5 30.16R NEW BERN CLOUDY 70 60 70 E9 30.16R RICHLANDS CLOUDY 71 64 78 E7 30.14R ROCKY MOUNT CLOUDY 69 65 86 CALM 30.15R WASHINGTON PTCLDY 65 63 92 E3 30.16R WHITEVILLE NOT AVBL $$ AMZ130-135-150-152-154-156-158-170-250-252-270-ANZ085-086-088-633-658-670-260200- MARINE OBSERVATIONS STATION/POSITION TIME TEMP WIND PRES WAVE SWELL AIR SEA DIR/SP/G HT/PER HT/PER (UTC) (F) (DEG/KT/KT) (MB) (FT/S) (FT/S) CHESAPEAKE LIGHT NOT AVBL 64 E VA BEACH 0050 70 76 30/ 10/ 16 1020.8 4/ 8 3/ 8 DUCK 0054 70 77 50/ 11/ 12 1020.8 2 E DUCK 0041 76 N/A 3/11 2/11 OREGON INLET 0054 70 77 30/ 7/ 10 1021.1 13E OREGON INLT 0030 76 N/A 4/ 8 3/ 8 HATTERAS CG 0054 71 79 40/ 9/ 13 1020.5 DIAMOND BUOY 0050 74 85 40/ 16/ 19 1020.0 4/ 8 2/ 8 CAPE LOOKOUT 0100 74 50/ 17/ 20 1020.4 BEAUFORT LAB 0054 72 79 50/ 6/ 10 1020.1 30 SE NEW RVR IN 0108 76 81 70/ 16/ 19 1020.3 30 SE NEW RVR IN 0055 81 N/A 5/ 5 2/11 27 SE WRIGHTSVLE 0108 77 81 70/ 16/ 23 1019.9 5 SE WRIGHTSVLE 0008 77 81 80/ 16/ 21 1020.5 225 S CAPE HAT 0050 82 83 50/ 16/ 17 1017.0 3/10 2/10 41 SE CHARLESTON 0050 81 82 70/ 16/ 19 1017.0 5/10 2/10 $$

USA.gov is the U.S. government's official web portal to all federal, state and local government web resources and services.